Wind_Speed
2 2 3 5 6 6 7 7 8 9 10 11 12 13 14 14 15 15 16 16 16 17 17 18 19 20 20 20 20 21 21 21 22 22 22 22 22 21 21 20 20 18 17 16
3 4 4 5 6 7 8 8 9 10 11 13 13 14 15 16 17 17 18 18 18 18 19 20 20 21 22 22 23 23 23 23 23 23 23 24 24 23 23 23 22 21 19 18
5 6 7 7 8 9 9 10 11 12 13 15 15 16 17 18 19 20 21 21 21 21 21 22 22 23 23 24 25 25 26 26 26 26 26 25 25 25 25 25 24 23 22 21
7 8 9 9 10 11 12 12 13 14 15 16 18 19 20 20 21 22 23 25 25 26 26 27 27 26 27 27 27 27 28 29 29 29 28 28 28 27 27 27 27 26 25 24
10 11 11 12 12 13 14 15 16 17 18 19 20 22 23 24 25 26 27 28 29 30 30 31 31 31 31 31 31 31 31 31 32 32 32 32 31 31 30 30 29 29 28 27
13 14 15 15 16 16 18 18 19 21 22 23 24 25 26 28 29 30 31 32 33 34 34 35 35 35 35 35 35 35 35 35 35 35 35 35 35 34 34 33 32 31 30 29
17 18 19 19 19 21 22 22 23 25 26 27 28 29 30 31 32 34 35 36 37 37 38 39 39 40 40 40 40 39 39 39 39 39 38 38 37 37 37 36 35 34 33 32
21 22 22 23 24 24 26 27 27 28 30 31 32 33 35 36 36 38 39 39 40 41 42 42 43 44 44 44 44 44 44 43 43 42 41 41 40 40 40 39 38 37 36 35
25 25 26 26 27 28 29 30 31 32 33 34 36 37 38 39 40 42 43 44 44 45 45 46 47 48 48 48 49 48 48 47 46 45 45 44 43 43 42 42 41 40 39 37
27 28 29 29 30 31 32 33 34 35 36 38 39 40 41 43 44 46 47 48 48 49 50 51 51 52 52 51 51 51 51 50 49 48 48 47 46 46 46 45 44 43 41 40
30 31 32 32 33 34 36 37 38 40 41 42 43 45 46 48 49 51 52 52 53 54 55 55 56 56 56 56 55 55 54 53 52 52 51 51 50 49 49 48 47 45 44 43
33 34 35 35 37 38 40 41 42 43 45 47 48 50 51 53 54 55 56 57 57 58 58 59 60 60 60 60 59 58 57 56 55 54 53 53 53 52 51 50 50 48 47 46
37 38 38 39 41 42 43 45 46 47 49 50 52 54 55 57 58 58 59 60 60 61 61 62 62 62 62 62 62 61 59 58 55 54 53 53 54 53 53 52 52 51 50 48
41 41 42 43 44 46 47 48 50 51 53 54 55 57 58 60 60 61 62 62 62 63 63 64 64 63 62 62 61 60 58 57 55 54 53 52 53 54 54 54 54 53 52 51
44 45 46 47 48 49 51 52 54 55 56 57 59 60 62 63 63 63 64 64 65 65 65 65 64 63 63 61 59 57 56 55 54 53 53 52 52 53 55 54 54 54 54 53
47 48 49 50 52 53 55 56 57 58 59 61 62 63 64 64 64 65 65 66 66 66 66 65 64 63 62 60 58 56 54 53 52 51 51 51 51 52 53 54 54 55 55 54
49 50 52 53 55 56 58 59 60 61 62 63 64 65 65 65 65 65 65 65 65 65 64 64 63 62 60 57 55 53 52 51 50 49 49 50 50 51 52 53 54 54 55 56
51 53 54 56 57 58 59 61 62 62 64 65 65 66 66 65 65 64 64 63 63 62 62 62 61 59 57 55 53 51 50 50 49 48 49 49 49 49 50 51 52 53 54 56
54 56 57 58 59 60 61 62 63 64 64 65 65 65 65 64 64 63 63 62 62 61 61 61 60 57 54 53 51 50 48 47 47 47 47 47 48 48 48 49 50 51 54 55
56 57 58 59 60 61 62 63 64 64 64 65 65 64 63 63 63 63 62 61 61 62 60 59 57 54 53 51 50 48 47 46 46 46 45 45 45 46 46 46 48 50 52 54
58 59 60 60 61 61 62 63 63 63 63 63 63 63 63 62 62 62 62 61 60 60 58 56 54 52 51 49 47 45 45 44 44 43 43 43 43 43 44 44 46 48 49 51
60 60 60 60 61 61 61 62 62 62 62 62 62 62 62 61 61 61 60 60 58 56 55 53 51 50 48 46 45 44 43 43 42 41 41 41 41 41 42 43 44 46 48 49
60 60 60 60 60 60 60 61 61 62 62 62 61 61 61 61 60 59 58 56 55 54 52 50 48 47 46 45 43 42 42 40 39 39 40 40 39 39 40 41 42 44 45 47
60 60 60 60 60 60 60 60 61 61 61 61 61 60 60 59 57 57 56 54 52 51 49 47 46 45 44 43 42 40 39 37 37 37 38 38 37 37 37 38 39 41 43 46
60 60 60 59 60 60 60 60 60 60 60 59 58 57 56 55 54 53 52 51 49 48 47 45 44 43 42 41 39 38 37 35 35 35 35 34 34 33 34 34 35 37 40 43
60 59 59 59 59 59 59 59 58 57 56 55 54 53 52 51 51 50 49 47 46 46 45 43 42 41 40 38 36 35 35 34 33 33 32 31 31 31 32 32 33 34 37 40
57 57 57 57 57 56 56 56 55 54 53 52 50 49 49 48 48 47 46 45 44 43 42 40 40 39 38 36 34 34 33 32 31 30 29 28 28 29 30 30 31 32 34 37
Wind_Direction
252 274 289 298 306 311 311 310 310 310 310 310 310 310 308 307 306 307 307 307 307 305 304 302 300 299 298 297 295 292 290 287 286 284 282 281 280 280 280 282 285 288 291 294
271 283 288 294 302 304 305 306 308 309 310 309 308 307 305 304 303 303 304 304 303 302 301 300 298 297 296 295 294 293 290 288 286 285 283 281 279 278 277 277 278 281 283 286
276 283 288 295 297 298 301 304 306 306 305 305 305 304 305 304 303 303 303 303 303 301 299 298 296 295 294 292 291 290 289 287 285 284 282 280 278 276 275 274 274 275 276 278
278 283 288 293 292 295 298 300 302 301 301 301 302 302 302 301 301 301 302 302 302 300 299 297 296 294 293 291 290 288 287 285 284 282 281 279 278 276 273 272 272 272 273 273
279 284 288 291 293 294 296 297 299 299 299 299 299 299 299 299 299 300 300 300 299 299 297 296 294 293 292 290 289 288 286 284 282 281 279 277 276 274 272 270 269 269 269 270
280 283 286 290 291 292 294 295 297 297 298 298 298 298 299 299 299 300 300 299 299 298 297 295 293 291 290 290 288 287 286 284 281 279 277 275 274 272 271 269 267 266 266 266
280 283 286 290 291 292 293 295 296 297 298 298 298 299 299 298 299 299 299 298 298 296 295 294 293 291 289 288 287 286 285 283 281 278 276 273 271 270 269 268 266 265 264 264
281 284 287 289 290 292 294 296 297 298 298 298 298 298 298 298 298 298 298 298 296 295 295 294 293 292 290 288 287 286 284 282 280 278 275 272 270 268 267 266 265 264 262 262
282 284 286 288 289 291 293 295 297 297 297 297 298 298 298 298 298 298 298 297 296 294 294 293 293 292 290 288 287 286 284 282 280 277 274 271 269 267 265 265 264 263 261 260
282 285 287 288 290 291 293 294 295 296 296 297 297 297 298 299 299 298 298 297 296 295 295 294 293 292 290 288 286 284 283 281 279 276 273 271 268 266 264 263 262 261 260 259
282 285 287 289 291 292 293 295 296 297 297 298 298 299 299 299 299 299 298 297 296 295 295 294 293 293 291 289 286 284 282 280 277 275 273 270 267 265 263 261 260 259 258 258
282 284 287 289 290 292 293 294 295 296 296 297 298 299 299 299 299 298 298 297 296 296 295 294 293 293 291 289 287 285 283 281 278 275 272 268 265 263 261 259 257 256 256 255
283 285 287 288 290 291 292 293 294 295 296 297 297 298 298 298 298 298 298 297 297 296 296 296 295 293 292 289 287 285 283 281 278 275 271 268 264 261 258 256 254 253 253 253
285 286 287 288 290 291 292 293 294 295 296 297 297 297 298 298 298 298 298 297 297 296 297 297 296 295 293 290 288 285 283 280 277 274 271 267 264 260 257 255 252 251 250 250
285 286 288 289 290 291 292 293 294 295 296 297 297 298 298 298 298 298 298 298 297 297 297 297 297 296 294 291 287 285 282 279 276 273 270 267 264 260 258 255 252 250 248 247
284 286 288 289 290 291 292 293 294 295 295 296 297 297 298 298 298 298 298 298 298 298 298 298 297 297 295 292 288 285 282 279 276 273 270 267 264 261 258 255 252 249 247 245
285 287 288 289 290 291 292 293 294 295 295 296 297 297 298 298 298 298 298 298 299 299 298 298 298 297 296 292 289 285 281 278 276 273 270 267 265 262 259 255 252 249 246 244
286 287 288 289 290 291 292 294 294 295 295 296 297 297 298 299 299 299 299 299 299 299 299 299 298 297 296 293 290 286 282 278 275 273 270 267 265 262 259 256 252 249 245 242
287 288 289 290 290 291 292 293 294 294 295 296 297 298 299 299 299 300 300 300 300 299 299 299 299 297 296 294 291 288 284 280 277 274 271 268 265 261 258 255 252 249 245 242
287 288 288 289 290 291 292 293 293 294 296 297 298 298 299 299 299 299 300 300 300 300 300 299 298 297 295 294 291 288 285 282 279 276 271 267 264 260 257 254 251 248 245 242
286 287 288 289 290 291 292 293 294 295 296 297 298 299 299 299 299 299 299 299 299 299 299 299 298 297 296 294 291 289 287 283 280 276 272 269 264 260 257 253 249 247 244 240
286 287 288 289 290 291 292 293 294 295 296 297 298 298 299 299 298 298 299 299 299 299 299 298 297 296 295 293 290 288 287 285 281 277 274 270 264 260 256 252 249 246 242 238
286 287 288 289 290 290 291 293 294 295 296 297 298 298 298 298 298 298 299 299 299 299 298 298 297 295 294 292 290 289 288 286 283 279 274 270 265 261 256 251 248 245 241 237
286 287 288 289 290 291 292 293 294 295 296 297 297 297 298 298 298 298 298 299 298 298 298 298 297 295 294 293 291 290 289 287 284 280 276 272 267 261 257 252 248 244 239 236
286 288 288 289 291 292 293 293 294 295 296 296 296 296 297 297 297 298 298 298 298 298 298 297 296 296 295 294 292 291 289 287 285 282 278 273 267 261 257 251 246 243 239 236
286 287 289 290 291 292 292 293 294 294 295 295 295 295 296 296 297 298 298 298 298 298 298 298 297 297 297 295 293 291 289 286 284 282 279 272 266 261 254 250 245 241 237 234
285 287 288 289 290 291 292 292 293 293 293 293 294 294 295 296 297 298 298 298 299 299 298 298 297 297 297 295 292 290 288 285 284 282 277 270 265 260 253 247 241 238 234 231
Height
5837 5837 5838 5838 5838 5838 5838 5838 5837 5837 5836 5835 5834 5833 5831 5829 5828 5826 5825 5823 5821 5820 5818 5817 5815 5814 5812 5810 5809 5808 5807 5806 5805 5804 5803 5802 5801 5800 5799 5799 5798 5796 5795 5793
5836 5836 5836 5836 5836 5835 5835 5835 5834 5833 5833 5832 5830 5829 5827 5826 5824 5823 5821 5819 5818 5816 5814 5812 5811 5809 5807 5806 5804 5803 5802 5800 5799 5798 5797 5796 5795 5794 5794 5793 5792 5792 5791 5789
5834 5834 5834 5834 5834 5833 5832 5832 5831 5830 5830 5828 5826 5825 5823 5821 5820 5818 5816 5814 5813 5811 5809 5807 5805 5804 5802 5800 5798 5797 5795 5794 5793 5792 5791 5790 5789 5788 5788 5787 5786 5786 5785 5784
5832 5832 5831 5834 5830 5830 5829 5828 5827 5826 5825 5823 5822 5820 5818 5816 5814 5813 5811 5809 5807 5805 5803 5801 5799 5797 5796 5794 5792 5790 5789 5787 5786 5784 5784 5783 5782 5781 5780 5780 5779 5779 5779 5778
5829 5828 5828 5828 5827 5826 5825 5824 5823 5821 5820 5818 5816 5815 5813 5811 5808 5806 5804 5802 5800 5798 5796 5794 5791 5790 5788 5786 5784 5782 5781 5779 5777 5776 5775 5774 5774 5773 5772 5772 5771 5771 5771 5771
5824 5824 5824 5825 5823 5820 5820 5819 5817 5815 5814 5812 5810 5809 5807 5804 5801 5799 5796 5794 5791 5789 5786 5784 5782 5780 5778 5777 5775 5773 5771 5770 5768 5766 5766 5765 5764 5763 5763 5762 5762 5762 5763 5763
5819 5818 5818 5818 5816 5815 5815 5814 5811 5809 5807 5805 5803 5801 5799 5796 5794 5791 5788 5785 5782 5779 5776 5774 5771 5769 5768 5766 5764 5762 5760 5759 5757 5755 5754 5753 5753 5752 5752 5752 5752 5753 5754 5754
5813 5812 5814 5811 5810 5809 5808 5805 5803 5801 5799 5797 5795 5792 5790 5787 5784 5781 5778 5775 5772 5768 5766 5762 5759 5757 5755 5753 5751 5749 5748 5746 5744 5742 5741 5741 5740 5740 5740 5740 5741 5742 5743 5744
5807 5808 5805 5804 5802 5801 5799 5797 5795 5793 5791 5788 5785 5783 5780 5777 5773 5770 5767 5763 5760 5756 5753 5750 5747 5743 5741 5738 5736 5734 5732 5731 5729 5728 5727 5726 5726 5727 5727 5727 5728 5729 5731 5732
5798 5797 5796 5795 5793 5792 5790 5788 5786 5783 5781 5778 5775 5772 5769 5765 5762 5758 5754 5750 5746 5743 5740 5736 5732 5728 5725 5722 5719 5717 5716 5714 5712 5712 5711 5711 5711 5712 5712 5714 5715 5716 5718 5720
5789 5788 5787 5786 5784 5782 5780 5777 5775 5772 5769 5766 5763 5760 5756 5753 5749 5744 5740 5736 5732 5728 5724 5720 5716 5712 5708 5704 5702 5699 5698 5696 5695 5694 5693 5693 5694 5695 5696 5698 5699 5702 5704 5706
5780 5779 5777 5776 5773 5771 5769 5766 5763 5761 5757 5754 5750 5747 5743 5738 5734 5729 5725 5720 5716 5711 5707 5702 5698 5694 5689 5685 5682 5679 5678 5676 5675 5674 5673 5673 5674 5676 5678 5681 5683 5686 5689 5691
5768 5767 5766 5764 5762 5759 5757 5754 5751 5748 5744 5741 5737 5732 5728 5723 5718 5713 5708 5703 5698 5693 5688 5684 5679 5674 5670 5665 5662 5659 5656 5655 5654 5653 5652 5653 5654 5656 5659 5662 5665 5669 5672 5676
5756 5755 5753 5751 5749 5747 5744 5741 5738 5734 5730 5726 5722 5717 5712 5707 5702 5696 5691 5685 5680 5675 5670 5664 5659 5654 5649 5645 5641 5638 5636 5634 5633 5632 5632 5633 5634 5636 5639 5642 5647 5651 5655 5659
5744 5742 5740 5738 5736 5733 5730 5726 5723 5719 5715 5711 5706 5701 5696 5690 5685 5679 5673 5667 5662 5656 5650 5644 5639 5634 5628 5624 5621 5618 5616 5614 5613 5612 5613 5613 5614 5616 5619 5623 5627 5632 5637 5641
5730 5728 5726 5724 5721 5718 5715 5711 5708 5704 5699 5695 5690 5684 5678 5673 5667 5661 5655 5649 5643 5638 5631 5625 5620 5614 5609 5604 5600 5598 5596 5594 5593 5593 5593 5594 5595 5597 5600 5603 5608 5613 5618 5624
5716 5714 5711 5709 5706 5702 5699 5695 5691 5687 5682 5677 5672 5666 5661 5655 5649 5643 5637 5631 5625 5618 5612 5606 5601 5596 5590 5585 5581 5579 5577 5576 5575 5574 5574 5575 5577 5579 5581 5585 5589 5594 5600 5605
5701 5699 5696 5693 5690 5686 5683 5678 5674 5669 5665 5660 5654 5649 5643 5637 5631 5626 5620 5613 5607 5601 5594 5587 5582 5577 5573 5567 5564 5561 5559 5557 5557 5556 5556 5557 5558 5560 5563 5566 5570 5575 5581 5586
5685 5683 5680 5677 5673 5670 5666 5662 5657 5652 5647 5642 5637 5631 5625 5619 5613 5607 5601 5596 5589 5584 5578 5571 5565 5560 5555 5551 5547 5544 5541 5540 5539 5539 5539 5539 5540 5542 5544 5548 5552 5557 5562 5568
5668 5666 5663 5660 5656 5653 5649 5644 5640 5635 5630 5624 5619 5614 5608 5602 5596 5590 5584 5579 5572 5565 5560 5554 5549 5544 5539 5535 5531 5528 5525 5523 5522 5521 5521 5522 5523 5525 5527 5531 5535 5540 5545 5551
5652 5649 5646 5642 5639 5635 5631 5626 5622 5617 5612 5607 5601 5596 5590 5585 5579 5572 5566 5562 5556 5548 5543 5538 5532 5528 5524 5519 5516 5513 5510 5507 5506 5505 5505 5505 5507 5508 5511 5515 5519 5523 5528 5534
5634 5631 5628 5624 5621 5618 5613 5608 5604 5599 5595 5589 5584 5578 5572 5567 5562 5556 5550 5543 5538 5533 5527 5522 5517 5513 5508 5505 5501 5498 5495 5493 5491 5490 5490 5490 5491 5493 5495 5499 5502 5507 5512 5518
5615 5612 5610 5607 5603 5600 5596 5592 5587 5582 5577 5572 5566 5560 5555 5550 5544 5538 5534 5529 5522 5517 5512 5507 5502 5498 5494 5490 5487 5484 5482 5479 5477 5476 5476 5475 5476 5477 5480 5483 5487 5491 5497 5503
5597 5594 5592 5589 5586 5582 5579 5575 5570 5565 5560 5555 5549 5543 5537 5533 5528 5522 5516 5512 5507 5502 5497 5493 5488 5484 5480 5477 5474 5471 5469 5467 5465 5463 5462 5462 5462 5463 5466 5469 5473 5477 5483 5489
5579 5577 5574 5571 5568 5565 5561 5557 5553 5548 5543 5538 5533 5527 5521 5516 5512 5507 5502 5497 5493 5488 5484 5480 5475 5471 5467 5464 5461 5459 5457 5455 5453 5451 5450 5449 5450 5451 5453 5456 5460 5464 5470 5476
5562 5559 5557 5553 5550 5547 5543 5539 5536 5531 5526 5522 5517 5512 5507 5502 5497 5493 5488 5484 5480 5475 5471 5467 5463 5459 5456 5452 5449 5447 5445 5443 5441 5439 5438 5438 5438 5440 5442 5445 5448 5453 5458 5464
5544 5542 5539 5536 5533 5529 5526 5522 5518 5515 5510 5506 5502 5498 5493 5489 5484 5480 5475 5471 5467 5463 5459 5455 5452 5448 5445 5441 5439 5436 5434 5432 5431 5429 5428 5428 5428 5430 5432 5435 5438 5442 5447 5453